| time (UTC) | temp C | wind direction | speed KPH | gust KPH | rain 1hr cm | rain 24hr cm | rain mn cm | humidity % | barometer mb |
| 20260901133103 | 22 | 270 | 14.5 | 0.0 | 0.00 | 0.00 | 0.00 | 46 | 1020.0 |
| 20260901131952 | 22 | 260 | 14.5 | 0.0 | 0.00 | 0.00 | 0.00 | 46 | |
| 20260901123209 | 21 | 270 | 9.7 | 0.0 | 0.00 | 0.00 | 0.00 | 52 | 1020.0 |
| 20260901121851 | 21 | 290 | 14.5 | 0.0 | 0.00 | 0.00 | 0.00 | 49 | |
| 20260901120103 | 21 | 290 | 12.9 | 0.0 | 0.00 | 0.00 | 0.00 | 52 | 1021.0 |
| 20260901113103 | 21 | 290 | 19.3 | 0.0 | 0.00 | 0.00 | 0.00 | 52 | 1021.0 |
| 20260901111952 | 21 | 280 | 19.3 | 0.0 | 0.00 | 0.00 | 0.00 | 52 | |
| 20260901103103 | 21 | 280 | 19.3 | 0.0 | 0.00 | 0.00 | 0.00 | 52 | 1020.0 |
| 20260901102152 | 20 | 270 | 19.3 | 0.0 | 0.00 | 0.00 | 0.00 | 52 | |
| 20260901093102 | 20 | 270 | 24.1 | 0.0 | 0.00 | 0.00 | 0.00 | 56 | 1020.0 |
| 20260901091851 | 18 | 260 | 22.5 | 0.0 | 0.00 | 0.00 | 0.00 | 59 | |
| 20260901090103 | 18 | 270 | 20.9 | 0.0 | 0.00 | 0.00 | 0.00 | 63 | 1020.0 |
| 20260901083103 | 18 | 270 | 22.5 | 0.0 | 0.00 | 0.00 | 0.00 | 63 | 1020.0 |
| 20260901082055 | 17 | 260 | 19.3 | 0.0 | 0.00 | 0.00 | 0.00 | 63 | |
| 20260901073103 | 17 | 250 | 24.1 | 0.0 | 0.00 | 0.00 | 0.00 | 67 | 1020.0 |
| 20260901072052 | 17 | 250 | 22.5 | 0.0 | 0.00 | 0.00 | 0.00 | 67 | |
| 20260901070211 | 17 | 240 | 24.1 | 0.0 | 0.00 | 0.00 | 0.00 | 72 | 1020.0 |
| 20260901063210 | 17 | 230 | 12.9 | 0.0 | 0.00 | 0.00 | 0.00 | 77 | 1020.0 |
| 20260901061851 | 17 | 220 | 14.5 | 0.0 | 0.00 | 0.00 | 0.00 | 72 | |
| 20260901053102 | 16 | 200 | 12.9 | 0.0 | 0.00 | 0.00 | 0.00 | 77 | 1019.0 |
| 20260901051951 | 16 | 230 | 19.3 | 0.0 | 0.00 | 0.00 | 0.00 | 77 | |
| 20260901043102 | 15 | 220 | 11.3 | 0.0 | 0.00 | 0.00 | 0.00 | 82 | 1019.0 |
| 20260901042151 | 16 | 230 | 14.5 | 0.0 | 0.00 | 0.00 | 0.00 | 77 | |
| 20260901033103 | 15 | 230 | 14.5 | 0.0 | 0.00 | 0.00 | 0.00 | 82 | 1018.0 |
| 20260901031851 | 16 | 230 | 14.5 | 0.0 | 0.00 | 0.00 | 0.00 | 72 | |
| 20260901030103 | 15 | 230 | 16.1 | 0.0 | 0.00 | 0.00 | 0.00 | 82 | 1018.0 |
| 20260901023103 | 16 | 220 | 14.5 | 0.0 | 0.00 | 0.00 | 0.00 | 77 | 1018.0 |
| 20260901022052 | 17 | 230 | 19.3 | 0.0 | 0.00 | 0.00 | 0.00 | 67 | |
| 20260901013102 | 17 | 230 | 20.9 | 0.0 | 0.00 | 0.00 | 0.00 | 67 | 1018.0 |
| 20260901012055 | 17 | 230 | 22.5 | 0.0 | 0.00 | 0.00 | 0.00 | 63 | |
| 20260901003103 | 17 | 220 | 16.1 | 0.0 | 0.00 | 0.00 | 0.00 | 67 | 1018.0 |
| 20260901001851 | 17 | 240 | 22.5 | 0.0 | 0.00 | 0.00 | 0.00 | 59 | |
| 20260831233107 | 17 | 230 | 16.1 | 0.0 | 0.00 | 0.00 | 0.00 | 67 | 1018.0 |
| 20260831232024 | 17 | 230 | 19.3 | 0.0 | 0.00 | 0.00 | 0.00 | 59 | |
| 20260831230104 | 17 | 230 | 19.3 | 0.0 | 0.00 | 0.00 | 0.00 | 67 | 1017.0 |
| 20260831223102 | 17 | 230 | 19.3 | 0.0 | 0.00 | 0.00 | 0.00 | 63 | 1017.0 |
| 20260831222154 | 18 | 230 | 19.3 | 0.0 | 0.00 | 0.00 | 0.00 | 59 | |
| 20260831213103 | 16 | 220 | 14.5 | 0.0 | 0.00 | 0.00 | 0.00 | 77 | 1017.0 |
| 20260831211851 | 17 | 220 | 14.5 | 0.0 | 0.00 | 0.00 | 0.00 | 63 | |
| 20260831210103 | 17 | 220 | 14.5 | 0.0 | 0.00 | 0.00 | 0.00 | 72 | 1016.0 |
| 20260831203103 | 17 | 230 | 14.5 | 0.0 | 0.00 | 0.00 | 0.00 | 72 | 1016.0 |
| 20260831202051 | 18 | 220 | 14.5 | 0.0 | 0.00 | 0.00 | 0.00 | 59 | |
| 20260831200103 | 17 | 210 | 14.5 | 0.0 | 0.00 | 0.00 | 0.00 | 67 | 1016.0 |
| 20260831193103 | 17 | 210 | 14.5 | 0.0 | 0.00 | 0.00 | 0.00 | 67 | 1016.0 |
| 20260831192055 | 21 | 230 | 14.5 | 0.0 | 0.00 | 0.00 | 0.00 | 49 | |
| 20260831183103 | 21 | 250 | 14.5 | 0.0 | 0.00 | 0.00 | 0.00 | 52 | 1015.0 |
| 20260831181852 | 22 | 250 | 14.5 | 0.0 | 0.00 | 0.00 | 0.00 | 46 | |
| 20260831180104 | 21 | 250 | 14.5 | 0.0 | 0.00 | 0.00 | 0.00 | 52 | 1015.0 |
| 20260831173102 | 22 | 240 | 20.9 | 0.0 | 0.00 | 0.00 | 0.00 | 49 | 1015.0 |
| 20260831172052 | 22 | 240 | 25.7 | 0.0 | 0.00 | 0.00 | 0.00 | 43 | |
| 20260831163102 | 23 | 230 | 25.7 | 0.0 | 0.00 | 0.00 | 0.00 | 44 | 1014.0 |
| 20260831162153 | 23 | 240 | 22.5 | 0.0 | 0.00 | 0.00 | 0.00 | 44 | |
| 20260831160103 | 23 | 240 | 25.7 | 0.0 | 0.00 | 0.00 | 0.00 | 47 | 1014.0 |
| 20260831153103 | 23 | 240 | 22.5 | 0.0 | 0.00 | 0.00 | 0.00 | 47 | 1015.0 |
| 20260831151854 | 23 | 250 | 25.7 | 0.0 | 0.00 | 0.00 | 0.00 | 44 | |
| 20260831151503 | 22 | 240 | 22.5 | 41.8 | 0.00 | 0.00 | 0.00 | 46 | 1015.0 |
| 20260831150211 | 23 | 240 | 27.4 | 0.0 | 0.00 | 0.00 | 0.00 | 47 | 1015.0 |
| 20260831143102 | 23 | 280 | 20.9 | 0.0 | 0.00 | 0.00 | 0.00 | 47 | 1015.0 |
| 20260831141951 | 22 | 270 | 19.3 | 0.0 | 0.00 | 0.00 | 0.00 | 46 |